STARLINK-1292, 45394

Orbit data source: Space-Track

STARLINK-1292, 45394 is a payload satellite owned by SpaceX/Seattle (US) in LEO that was launched on Wed, 18 Mar 2020 UTC via an FALCON 9 launch vehicle from the Air Force Eastern Test Range (AFETR). Payload-class satellites include a variety of spacecraft equipped with specific instruments for various scientific and technological missions. These include communications satellites like Starlink; space stations such as the ISS; scientific satellites like the Hubble; Earth observation satellites from companies like Planet Labs, Umbra, and HawkEye 360; GPS; miniature CubeSats for education and research; and military/defense satellites.

Not visible in the next 10 days
Identifier
45394, 2020-019AL
Orbit
LEO
Country
Flag of USUS
Related business
Manufacturer
SpaceX/Seattle
Mission
Partially operational Commercial Communications
Bus & Motor
STARLINK, Unknown motor
Mass
260 kg wet, ~248 kg dry
Launch date (UTC)
2020-03-18 (6 years ago)
Launch vehicle
FALCON 9
Launch site
Air Force Eastern Test Range (AFETR)
Object type
Payload
Rocket body
Debris
Shape & HBR
Box + 1 Pan, 10.1 m
Radar Cross Section
13.562 m², Large (>1 m²)

Expand to show TLE details & history
Last TLE update: 4 hours ago

TLE from 4 hours ago
0 STARLINK-1292
1 45394U 20019AL  25310.33335648  .00608239  17662-3  11320-2 0  9995
2 45394  53.0415 286.6627 0007219  48.5364 272.1377 16.00450831  6082
Epoch: 2025-11-06T08:00Z
TLE epoch observation values (Epoch: 2025-11-06T08:00:01.999Z)
Latitude
-30.69585°
Longitude
94.49236°
Altitude
282.394 km
Speed
7.738 km/s
True Right ascension
17h 21m 10s
True Declination
-30° 32' 04"
Sunlit
Object was in daylight at epoch
Visualization orbit readout
Latitude
Unknown
Longitude
Unknown
Altitude
Unknown
Speed
Unknown
Apparent Right ascension
Unknown
Apparent Declination
Unknown
Sunlit
N/A
Visualization observer readout
Local Sidereal Time
07:41:38
Azimuth
Unknown
Elevation
Unknown
Doppler factor
Unknown
Orbital elements
Apogee altitude
278.255 km
Perigee altitude
268.651 km
Semi-major axis
6,651.59 km
Eccentricity
0.00072
Inclination
53.0415°
RAAN
286.6627°
Arg. of periapsis
48.5364°
True anomaly
272.05503°
Mean anomaly
272.1377°
Eccentric anomaly
272.09637°
Mean motion
4.00087 °/min
Orbital period
89.98 mins
BSTAR
0.001132
Loading maneuver chart data...
Computing Atmospheric mass density...
Loading historical data...
Loading historical data...
Loading historical data...
Loading historical data...
Loading historical data...
Loading historical data...
Loading historical data...

Documentation

Showing up to 5 results
|